Flag for U.S.A. Weather past 2 weeks in Olathe, Kansas, U.S.A.

Now
26 °F

Scattered clouds.


Feels Like: 14 °F
Forecast: 19 / 29 °F
Wind: 14 mph from North

Location: Johnson County Executive Airport

Current Time: Mar 4, 2015 at 4:47:30 PM

Latest Report: Mar 4, 2015 at 3:53 PM


Visibility: 10 mi

Pressure: 30.32 "Hg

Humidity: 37%

Dew point: 3 °F

Location of OlatheLocation

Historic Weather in Olathe — Graph

°F

Olathe temperature yesterday

Maximum temperature yesterday: 47 °F (at 12:53 PM)
Minimum temperature yesterday: 30 °F (at 11:53 PM)
Average temperature yesterday: 38 °F

Past Weeks' High & Low Weather Summary

 TemperatureHumidityPressure
High52 °F (Feb 25, 1:53 PM)100% (Feb 20, 9:53 PM)30.80 "Hg (Feb 20, 9:53 PM)
Low4 °F (Feb 27, 4:53 AM)24% (Feb 23, 3:53 PM)29.72 "Hg (Mar 3, 8:58 AM)
Average24 °F66%30.27 "Hg
* Reported Feb 17 2:00 PM — Mar 4 2:53 PM, Olathe, Weather by CustomWeather, © 2015

Note: Actual official high and low records may vary slightly from our data, if they occured in-between our weather recording intervals... More about our weather records

Advertising

Olathe weather history for previous 24 hours

 ConditionsComfort  
Time TempWeatherWind HumidityBarometerVisibility
2:53 PM
Wed, Mar 4
26 °FPartly sunny.18 mph35%30.30 "Hg10 mi
1:53 PM24 °FOvercast.14 mph44%30.29 "Hg10 mi
12:53 PM24 °FOvercast.16 mph44%30.33 "Hg10 mi
11:53 AM24 °FOvercast.18 mph48%30.34 "Hg10 mi
10:53 AM22 °FMostly cloudy.17 mph55%30.32 "Hg10 mi
9:53 AM21 °FOvercast.17 mph62%30.32 "Hg9 mi
9:04 AM19 °FLight snow. Ice fog.15 mph85%30.27 "Hg2 mi
8:53 AM19 °FLight snow. Ice fog.12 mph85%30.31 "Hg1 mi
8:01 AM18 °FSnow. Overcast.16 mph77%30.25 "Hg1 mi
6:53 AM20 °FOvercast.18 mph55%30.23 "Hg10 mi
5:53 AM20 °FOvercast.17 mph50%30.22 "Hg10 mi
4:53 AM21 °FMostly cloudy.21 mph45%30.19 "Hg10 mi
3:53 AM21 °FOvercast.16 mph62%30.16 "Hg10 mi
2:53 AM23 °FMostly cloudy.17 mph68%30.10 "Hg10 mi
1:53 AM26 °FPassing clouds.18 mph63%30.08 "Hg10 mi
12:53 AM29 °FPassing clouds.13 mph64%30.07 "Hg10 mi
11:53 PM
Tue, Mar 3
30 °FOvercast.14 mph69%30.04 "Hg10 mi
10:53 PM32 °FClear.12 mph69%30.00 "Hg10 mi
9:53 PM33 °FPassing clouds.15 mph72%29.97 "Hg9 mi
8:53 PM35 °FClear.16 mph72%29.94 "Hg8 mi
7:53 PM37 °FOvercast.18 mph73%29.96 "Hg10 mi
6:53 PM39 °FOvercast.9 mph65%29.92 "Hg9 mi
5:53 PM40 °FSunny.6 mph63%29.90 "Hg7 mi
4:53 PM41 °FPassing clouds.10 mph62%29.89 "Hg8 mi
Weather by CustomWeather, © 2015

See weather overviewHow to use our weather pages